Time,TemperatureF,DewpointF,PressureIn,WindDirection,WindDirectionDegrees,WindSpeedMPH,WindSpeedGustMPH,Humidity,HourlyPrecipIn,Conditions,Clouds,dailyrainin,SoftwareType,DateUTC
2013-07-16 00:00:00,73.0,71.5,30.28,East,86,0.0,0.0,95,0.00,,,0.00,Wunderground v.1.15,2013-07-16 04:00:00,
2013-07-16 00:05:00,72.9,71.1,30.28,East,86,0.0,0.0,94,0.00,,,0.00,Wunderground v.1.15,2013-07-16 04:05:00,
2013-07-16 00:15:00,72.8,71.3,30.28,East,86,0.0,0.0,95,0.00,,,0.00,Wunderground v.1.15,2013-07-16 04:15:00,
2013-07-16 00:20:00,72.8,71.3,30.28,East,86,0.0,0.0,95,0.00,,,0.00,Wunderground v.1.15,2013-07-16 04:20:00,
2013-07-16 00:30:00,72.7,71.2,30.28,East,86,0.0,0.0,95,0.00,,,0.00,Wunderground v.1.15,2013-07-16 04:30:00,
2013-07-16 00:40:00,72.7,71.2,30.28,East,86,0.0,0.0,95,0.00,,,0.00,Wunderground v.1.15,2013-07-16 04:40:00,
2013-07-16 00:50:00,72.8,71.3,30.28,East,86,0.0,0.0,95,0.00,,,0.00,Wunderground v.1.15,2013-07-16 04:50:00,
2013-07-16 00:55:00,72.7,71.2,30.28,East,86,0.0,0.0,95,0.00,,,0.00,Wunderground v.1.15,2013-07-16 04:55:00,
2013-07-16 01:00:00,72.6,71.1,30.28,East,86,0.0,0.0,95,0.00,,,0.00,Wunderground v.1.15,2013-07-16 05:00:00,
2013-07-16 01:05:00,72.6,71.1,30.28,East,86,0.0,0.0,95,0.00,,,0.00,Wunderground v.1.15,2013-07-16 05:05:00,
2013-07-16 01:15:00,72.6,71.4,30.28,East,86,0.0,0.0,96,0.00,,,0.00,Wunderground v.1.15,2013-07-16 05:15:00,
2013-07-16 01:25:00,72.3,70.8,30.28,East,86,0.0,0.0,95,0.00,,,0.00,Wunderground v.1.15,2013-07-16 05:25:00,
2013-07-16 01:35:00,71.9,70.4,30.28,East,86,0.0,0.0,95,0.00,,,0.00,Wunderground v.1.15,2013-07-16 05:35:00,
2013-07-16 01:40:00,72.0,70.5,30.28,East,86,0.0,0.0,95,0.00,,,0.00,Wunderground v.1.15,2013-07-16 05:40:00,
2013-07-16 01:45:00,72.1,70.9,30.28,East,86,0.0,0.0,96,0.00,,,0.00,Wunderground v.1.15,2013-07-16 05:45:00,
2013-07-16 01:50:00,72.0,70.5,30.28,East,86,0.0,0.0,95,0.00,,,0.00,Wunderground v.1.15,2013-07-16 05:50:00,
2013-07-16 02:00:00,72.1,70.9,30.28,East,86,0.0,0.0,96,0.00,,,0.00,Wunderground v.1.15,2013-07-16 06:00:00,
2013-07-16 02:05:00,72.1,70.9,30.27,East,86,0.0,0.0,96,0.00,,,0.00,Wunderground v.1.15,2013-07-16 06:05:00,
2013-07-16 02:15:00,72.0,70.5,30.28,East,86,0.0,0.0,95,0.00,,,0.00,Wunderground v.1.15,2013-07-16 06:15:00,
2013-07-16 02:25:00,71.9,70.7,30.28,East,86,0.0,0.0,96,0.00,,,0.00,Wunderground v.1.15,2013-07-16 06:25:00,
2013-07-16 02:35:00,71.8,70.6,30.28,East,86,0.0,0.0,96,0.00,,,0.00,Wunderground v.1.15,2013-07-16 06:35:00,
2013-07-16 02:40:00,71.7,70.5,30.28,East,86,0.0,0.0,96,0.00,,,0.00,Wunderground v.1.15,2013-07-16 06:40:00,
2013-07-16 02:45:00,71.7,70.5,30.28,East,86,0.0,0.0,96,0.00,,,0.00,Wunderground v.1.15,2013-07-16 06:45:00,
2013-07-16 02:55:00,72.0,70.8,30.28,East,86,0.0,0.0,96,0.00,,,0.00,Wunderground v.1.15,2013-07-16 06:55:00,
2013-07-16 03:05:00,72.4,71.2,30.28,East,86,0.0,0.0,96,0.00,,,0.00,Wunderground v.1.15,2013-07-16 07:05:00,
2013-07-16 03:15:00,72.5,71.3,30.28,East,86,0.0,0.0,96,0.00,,,0.00,Wunderground v.1.15,2013-07-16 07:15:00,
2013-07-16 03:25:00,72.6,71.4,30.28,East,86,0.0,0.0,96,0.00,,,0.00,Wunderground v.1.15,2013-07-16 07:25:00,
2013-07-16 03:30:00,72.6,71.1,30.28,East,86,0.0,0.0,95,0.00,,,0.00,Wunderground v.1.15,2013-07-16 07:30:00,
2013-07-16 03:35:00,72.6,71.4,30.27,East,86,0.0,0.0,96,0.00,,,0.00,Wunderground v.1.15,2013-07-16 07:35:00,
2013-07-16 03:45:00,72.5,71.0,30.28,East,86,0.0,0.0,95,0.00,,,0.00,Wunderground v.1.15,2013-07-16 07:45:00,
2013-07-16 03:55:00,72.3,70.8,30.27,East,86,0.0,0.0,95,0.00,,,0.00,Wunderground v.1.15,2013-07-16 07:55:00,
2013-07-16 04:00:00,72.3,71.1,30.27,East,86,0.0,0.0,96,0.00,,,0.00,Wunderground v.1.15,2013-07-16 08:00:00,
2013-07-16 04:05:00,72.5,71.3,30.27,East,86,0.0,0.0,96,0.00,,,0.00,Wunderground v.1.15,2013-07-16 08:05:00,
2013-07-16 04:15:00,72.8,71.3,30.27,East,86,0.0,0.0,95,0.00,,,0.00,Wunderground v.1.15,2013-07-16 08:15:00,
2013-07-16 04:20:00,72.8,71.3,30.28,East,86,0.0,0.0,95,0.00,,,0.00,Wunderground v.1.15,2013-07-16 08:20:00,
2013-07-16 04:25:00,72.8,71.3,30.27,East,86,0.0,0.0,95,0.00,,,0.00,Wunderground v.1.15,2013-07-16 08:25:00,
2013-07-16 04:35:00,72.9,71.4,30.27,East,86,0.0,0.0,95,0.00,,,0.00,Wunderground v.1.15,2013-07-16 08:35:00,
2013-07-16 04:45:00,72.8,71.3,30.27,East,86,0.0,0.0,95,0.00,,,0.00,Wunderground v.1.15,2013-07-16 08:45:00,
2013-07-16 04:55:00,72.6,70.8,30.27,East,86,0.0,0.0,94,0.00,,,0.00,Wunderground v.1.15,2013-07-16 08:55:00,
2013-07-16 05:05:00,72.4,70.9,30.27,East,86,0.0,0.0,95,0.00,,,0.00,Wunderground v.1.15,2013-07-16 09:05:00,
2013-07-16 05:15:00,72.2,70.7,30.27,East,86,0.0,0.0,95,0.00,,,0.00,Wunderground v.1.15,2013-07-16 09:15:00,
2013-07-16 05:20:00,72.1,70.6,30.27,East,86,0.0,0.0,95,0.00,,,0.00,Wunderground v.1.15,2013-07-16 09:20:00,
2013-07-16 05:30:00,72.0,70.5,30.27,East,86,0.0,0.0,95,0.00,,,0.00,Wunderground v.1.15,2013-07-16 09:30:00,
2013-07-16 05:40:00,71.7,70.2,30.27,East,86,0.0,0.0,95,0.00,,,0.00,Wunderground v.1.15,2013-07-16 09:40:00,
2013-07-16 05:50:00,71.6,70.1,30.27,East,86,0.0,0.0,95,0.00,,,0.00,Wunderground v.1.15,2013-07-16 09:50:00,
2013-07-16 05:55:00,71.5,70.0,30.28,East,86,0.0,0.0,95,0.00,,,0.00,Wunderground v.1.15,2013-07-16 09:55:00,
2013-07-16 06:05:00,71.5,70.0,30.28,East,86,0.0,0.0,95,0.00,,,0.00,Wunderground v.1.15,2013-07-16 10:05:00,
2013-07-16 06:15:00,71.5,70.0,30.28,East,86,0.0,0.0,95,0.00,,,0.00,Wunderground v.1.15,2013-07-16 10:15:00,
2013-07-16 06:25:00,71.3,69.8,30.28,East,86,0.0,0.0,95,0.00,,,0.00,Wunderground v.1.15,2013-07-16 10:25:00,
2013-07-16 06:30:00,71.3,70.1,30.28,East,86,0.0,0.0,96,0.00,,,0.00,Wunderground v.1.15,2013-07-16 10:30:00,
2013-07-16 06:35:00,71.3,70.1,30.28,East,86,0.0,0.0,96,0.00,,,0.00,Wunderground v.1.15,2013-07-16 10:35:00,
2013-07-16 06:45:00,71.2,70.0,30.28,East,86,0.0,0.0,96,0.00,,,0.00,Wunderground v.1.15,2013-07-16 10:45:00,
2013-07-16 06:50:00,71.2,70.0,30.28,East,86,0.0,0.0,96,0.00,,,0.00,Wunderground v.1.15,2013-07-16 10:50:00,
2013-07-16 07:00:00,71.4,70.2,30.28,East,86,0.0,0.0,96,0.00,,,0.00,Wunderground v.1.15,2013-07-16 11:00:00,
2013-07-16 07:05:00,71.6,70.4,30.28,East,86,0.0,0.0,96,0.00,,,0.00,Wunderground v.1.15,2013-07-16 11:05:00,
2013-07-16 07:15:00,71.9,70.7,30.28,East,86,0.0,0.0,96,0.00,,,0.00,Wunderground v.1.15,2013-07-16 11:15:00,
2013-07-16 07:25:00,72.5,71.6,30.28,East,86,0.0,0.0,97,0.00,,,0.00,Wunderground v.1.15,2013-07-16 11:25:00,
2013-07-16 07:35:00,73.2,72.3,30.29,East,86,0.0,0.0,97,0.00,,,0.00,Wunderground v.1.15,2013-07-16 11:35:00,
2013-07-16 07:40:00,73.6,72.7,30.29,East,86,0.0,0.0,97,0.00,,,0.00,Wunderground v.1.15,2013-07-16 11:40:00,
2013-07-16 07:45:00,74.0,73.1,30.29,East,86,0.0,0.0,97,0.00,,,0.00,Wunderground v.1.15,2013-07-16 11:45:00,
2013-07-16 07:55:00,74.7,73.5,30.29,East,86,0.0,0.0,96,0.00,,,0.00,Wunderground v.1.15,2013-07-16 11:55:00,
2013-07-16 08:05:00,75.3,74.1,30.29,East,86,0.0,0.0,96,0.00,,,0.00,Wunderground v.1.15,2013-07-16 12:05:00,
2013-07-16 08:15:00,76.1,74.2,30.29,East,86,0.0,0.0,94,0.00,,,0.00,Wunderground v.1.15,2013-07-16 12:15:00,
2013-07-16 08:20:00,76.5,74.3,30.29,East,86,0.0,0.0,93,0.00,,,0.00,Wunderground v.1.15,2013-07-16 12:20:00,
2013-07-16 08:30:00,77.5,74.7,30.29,East,86,0.0,0.0,91,0.00,,,0.00,Wunderground v.1.15,2013-07-16 12:30:00,
2013-07-16 08:40:00,78.1,74.9,30.29,East,86,0.0,0.0,90,0.00,,,0.00,Wunderground v.1.15,2013-07-16 12:40:00,
2013-07-16 08:50:00,79.0,75.5,30.29,East,86,0.0,0.0,89,0.00,,,0.00,Wunderground v.1.15,2013-07-16 12:50:00,
2013-07-16 09:00:00,79.8,75.9,30.29,East,86,0.0,0.0,88,0.00,,,0.00,Wunderground v.1.15,2013-07-16 13:00:00,
2013-07-16 09:05:00,80.2,75.3,30.29,East,86,0.0,0.0,85,0.00,,,0.00,Wunderground v.1.15,2013-07-16 13:05:00,
2013-07-16 09:15:00,81.0,75.3,30.29,North,355,0.0,0.0,83,0.00,,,0.00,Wunderground v.1.15,2013-07-16 13:15:00,
2013-07-16 09:20:00,81.2,75.2,30.29,NNW,340,0.0,0.0,82,0.00,,,0.00,Wunderground v.1.15,2013-07-16 13:20:00,
2013-07-16 09:30:00,81.8,75.0,30.29,NNW,339,0.0,0.0,80,0.00,,,0.00,Wunderground v.1.15,2013-07-16 13:30:00,
2013-07-16 09:40:00,82.5,75.7,30.29,NNW,339,0.0,0.0,80,0.00,,,0.00,Wunderground v.1.15,2013-07-16 13:40:00,
2013-07-16 09:50:00,83.0,75.8,30.29,SE,141,0.0,2.0,79,0.00,,,0.00,Wunderground v.1.15,2013-07-16 13:50:00,
2013-07-16 09:55:00,83.2,75.6,30.29,East,82,1.0,3.0,78,0.00,,,0.00,Wunderground v.1.15,2013-07-16 13:55:00,
2013-07-16 10:00:00,83.5,76.3,30.29,SW,225,1.0,6.0,79,0.00,,,0.00,Wunderground v.1.15,2013-07-16 14:00:00,
2013-07-16 10:05:00,83.6,75.6,30.29,SW,232,1.0,6.0,77,0.00,,,0.00,Wunderground v.1.15,2013-07-16 14:05:00,
2013-07-16 10:15:00,84.1,75.7,30.29,SW,228,1.0,5.0,76,0.00,,,0.00,Wunderground v.1.15,2013-07-16 14:15:00,
2013-07-16 10:20:00,84.1,74.5,30.29,WSW,248,2.0,2.0,73,0.00,,,0.00,Wunderground v.1.15,2013-07-16 14:20:00,
2013-07-16 10:25:00,84.2,75.0,30.29,WSW,244,2.0,2.0,74,0.00,,,0.00,Wunderground v.1.15,2013-07-16 14:25:00,
2013-07-16 10:35:00,84.6,75.4,30.29,West,265,1.0,2.0,74,0.00,,,0.00,Wunderground v.1.15,2013-07-16 14:35:00,
2013-07-16 10:40:00,84.7,74.3,30.29,West,268,1.0,1.0,71,0.00,,,0.00,Wunderground v.1.15,2013-07-16 14:40:00,
2013-07-16 10:45:00,84.9,74.9,30.28,West,263,2.0,2.0,72,0.00,,,0.00,Wunderground v.1.15,2013-07-16 14:45:00,
2013-07-16 10:55:00,85.4,75.3,30.28,West,265,1.0,1.0,72,0.00,,,0.00,Wunderground v.1.15,2013-07-16 14:55:00,
2013-07-16 11:05:00,86.1,75.6,30.28,SW,222,1.0,1.0,71,0.00,,,0.00,Wunderground v.1.15,2013-07-16 15:05:00,
2013-07-16 11:15:00,86.4,75.5,30.28,WSW,256,1.0,1.0,70,0.00,,,0.00,Wunderground v.1.15,2013-07-16 15:15:00,
2013-07-16 11:25:00,86.7,74.9,30.28,WSW,256,1.0,1.0,68,0.00,,,0.00,Wunderground v.1.15,2013-07-16 15:25:00,
2013-07-16 11:35:00,86.3,74.9,30.28,WSW,246,1.0,1.0,69,0.00,,,0.00,Wunderground v.1.15,2013-07-16 15:35:00,
2013-07-16 11:45:00,87.1,75.3,30.27,WSW,246,0.0,1.0,68,0.00,,,0.00,Wunderground v.1.15,2013-07-16 15:45:00,
2013-07-16 11:55:00,87.3,75.4,30.27,WSW,241,1.0,5.0,68,0.00,,,0.00,Wunderground v.1.15,2013-07-16 15:55:00,
2013-07-16 12:05:00,87.5,75.2,30.27,WSW,241,1.0,1.0,67,0.00,,,0.00,Wunderground v.1.15,2013-07-16 16:05:00,
2013-07-16 12:15:00,87.9,74.7,30.27,SW,234,1.0,4.0,65,0.00,,,0.00,Wunderground v.1.15,2013-07-16 16:15:00,
2013-07-16 12:20:00,88.1,75.8,30.27,SW,234,1.0,5.0,67,0.00,,,0.00,Wunderground v.1.15,2013-07-16 16:20:00,
2013-07-16 12:25:00,88.4,76.5,30.26,SW,234,0.0,5.0,68,0.00,,,0.00,Wunderground v.1.15,2013-07-16 16:25:00,
2013-07-16 12:35:00,88.5,73.3,30.26,SW,234,0.0,0.0,61,0.00,,,0.00,Wunderground v.1.15,2013-07-16 16:35:00,
2013-07-16 12:45:00,88.7,75.0,30.26,SW,236,1.0,1.0,64,0.00,,,0.00,Wunderground v.1.15,2013-07-16 16:45:00,
2013-07-16 12:55:00,88.8,74.6,30.26,WSW,239,0.0,0.0,63,0.00,,,0.00,Wunderground v.1.15,2013-07-16 16:55:00,
2013-07-16 13:05:00,89.0,74.8,30.26,West,261,0.0,0.0,63,0.00,,,0.00,Wunderground v.1.15,2013-07-16 17:05:00,
2013-07-16 13:10:00,88.9,75.1,30.25,West,261,0.0,0.0,64,0.00,,,0.00,Wunderground v.1.15,2013-07-16 17:10:00,
2013-07-16 13:15:00,89.2,75.0,30.25,West,265,1.0,1.0,63,0.00,,,0.00,Wunderground v.1.15,2013-07-16 17:15:00,
2013-07-16 13:20:00,89.3,74.6,30.26,West,269,1.0,1.0,62,0.00,,,0.00,Wunderground v.1.15,2013-07-16 17:20:00,
2013-07-16 13:25:00,89.4,74.7,30.25,West,269,0.0,1.0,62,0.00,,,0.00,Wunderground v.1.15,2013-07-16 17:25:00,
2013-07-16 13:35:00,89.9,74.2,30.25,West,269,0.0,0.0,60,0.00,,,0.00,Wunderground v.1.15,2013-07-16 17:35:00,
2013-07-16 13:45:00,90.4,76.6,30.25,West,269,0.0,0.0,64,0.00,,,0.00,Wunderground v.1.15,2013-07-16 17:45:00,
2013-07-16 13:50:00,90.1,73.8,30.25,WNW,290,0.0,0.0,59,0.00,,,0.00,Wunderground v.1.15,2013-07-16 17:50:00,
2013-07-16 13:55:00,90.1,73.3,30.25,WNW,289,1.0,1.0,58,0.00,,,0.00,Wunderground v.1.15,2013-07-16 17:55:00,
2013-07-16 14:00:00,90.1,73.3,30.24,WNW,289,0.0,0.0,58,0.00,,,0.00,Wunderground v.1.15,2013-07-16 18:00:00,
2013-07-16 14:05:00,90.6,75.3,30.24,WNW,289,0.0,1.0,61,0.00,,,0.00,Wunderground v.1.15,2013-07-16 18:05:00,
2013-07-16 14:15:00,90.3,75.5,30.24,NW,319,1.0,1.0,62,0.00,,,0.00,Wunderground v.1.15,2013-07-16 18:15:00,
2013-07-16 14:25:00,90.4,76.1,30.23,NW,319,0.0,0.0,63,0.00,,,0.00,Wunderground v.1.15,2013-07-16 18:25:00,
2013-07-16 14:30:00,90.5,77.1,30.23,NW,319,0.0,0.0,65,0.00,,,0.00,Wunderground v.1.15,2013-07-16 18:30:00,
2013-07-16 14:40:00,90.4,74.1,30.23,NNW,342,0.0,0.0,59,0.00,,,0.00,Wunderground v.1.15,2013-07-16 18:40:00,
2013-07-16 14:45:00,90.6,77.2,30.23,NW,313,1.0,1.0,65,0.00,,,0.00,Wunderground v.1.15,2013-07-16 18:45:00,
2013-07-16 14:50:00,90.6,75.3,30.23,NW,314,1.0,1.0,61,0.00,,,0.00,Wunderground v.1.15,2013-07-16 18:50:00,
2013-07-16 15:00:00,90.9,76.6,30.22,NW,314,0.0,0.0,63,0.00,,,0.00,Wunderground v.1.15,2013-07-16 19:00:00,
2013-07-16 15:05:00,91.3,76.9,30.22,WNW,302,1.0,1.0,63,0.00,,,0.00,Wunderground v.1.15,2013-07-16 19:05:00,
2013-07-16 15:15:00,91.6,78.6,30.22,NW,304,0.0,1.0,66,0.00,,,0.00,Wunderground v.1.15,2013-07-16 19:15:00,
2013-07-16 15:25:00,91.4,75.1,30.22,NW,307,0.0,0.0,59,0.00,,,0.00,Wunderground v.1.15,2013-07-16 19:25:00,
2013-07-16 15:30:00,91.6,75.7,30.22,NW,307,0.0,0.0,60,0.00,,,0.00,Wunderground v.1.15,2013-07-16 19:30:00,
2013-07-16 15:35:00,91.4,75.1,30.22,NW,307,0.0,0.0,59,0.00,,,0.00,Wunderground v.1.15,2013-07-16 19:35:00,
2013-07-16 15:45:00,91.5,74.1,30.22,NW,307,0.0,0.0,57,0.00,,,0.00,Wunderground v.1.15,2013-07-16 19:45:00,
2013-07-16 15:55:00,91.8,77.4,30.21,NW,307,0.0,0.0,63,0.00,,,0.00,Wunderground v.1.15,2013-07-16 19:55:00,
2013-07-16 16:05:00,92.3,75.9,30.21,NW,307,0.0,0.0,59,0.00,,,0.00,Wunderground v.1.15,2013-07-16 20:05:00,
2013-07-16 16:15:00,92.1,74.7,30.21,NW,307,0.0,0.0,57,0.00,,,0.00,Wunderground v.1.15,2013-07-16 20:15:00,
2013-07-16 16:20:00,92.6,77.2,30.21,NW,307,0.0,0.0,61,0.00,,,0.00,Wunderground v.1.15,2013-07-16 20:20:00,
2013-07-16 16:25:00,92.8,76.9,30.21,NW,307,0.0,0.0,60,0.00,,,0.00,Wunderground v.1.15,2013-07-16 20:25:00,
2013-07-16 16:30:00,92.8,75.3,30.21,NW,307,0.0,0.0,57,0.00,,,0.00,Wunderground v.1.15,2013-07-16 20:30:00,
2013-07-16 16:35:00,92.9,76.5,30.20,NW,307,0.0,0.0,59,0.00,,,0.00,Wunderground v.1.15,2013-07-16 20:35:00,
2013-07-16 16:45:00,92.8,76.9,30.20,NNW,332,0.0,1.0,60,0.00,,,0.00,Wunderground v.1.15,2013-07-16 20:45:00,
2013-07-16 16:55:00,93.0,76.6,30.21,NNW,332,0.0,0.0,59,0.00,,,0.00,Wunderground v.1.15,2013-07-16 20:55:00,
2013-07-16 17:00:00,93.0,74.4,30.20,NNW,332,0.0,0.0,55,0.00,,,0.00,Wunderground v.1.15,2013-07-16 21:00:00,
2013-07-16 17:05:00,93.3,75.8,30.20,NNW,332,0.0,0.0,57,0.00,,,0.00,Wunderground v.1.15,2013-07-16 21:05:00,
2013-07-16 17:15:00,93.4,75.4,30.19,WNW,284,1.0,1.0,56,0.00,,,0.00,Wunderground v.1.15,2013-07-16 21:15:00,
2013-07-16 17:25:00,92.6,76.7,30.19,WNW,284,0.0,1.0,60,0.00,,,0.00,Wunderground v.1.15,2013-07-16 21:25:00,
2013-07-16 17:30:00,91.9,77.5,30.20,WNW,284,0.0,0.0,63,0.00,,,0.00,Wunderground v.1.15,2013-07-16 21:30:00,
2013-07-16 17:40:00,91.7,76.3,30.19,WNW,284,0.0,0.0,61,0.00,,,0.00,Wunderground v.1.15,2013-07-16 21:40:00,
2013-07-16 17:45:00,91.1,76.7,30.19,WNW,284,0.0,0.0,63,0.00,,,0.00,Wunderground v.1.15,2013-07-16 21:45:00,
2013-07-16 17:55:00,88.9,77.4,30.19,WNW,284,0.0,0.0,69,0.00,,,0.00,Wunderground v.1.15,2013-07-16 21:55:00,
2013-07-16 18:00:00,87.2,77.5,30.20,WNW,287,0.0,0.0,73,0.00,,,0.00,Wunderground v.1.15,2013-07-16 22:00:00,
2013-07-16 18:05:00,85.5,78.2,30.20,WNW,288,0.0,0.0,79,0.00,,,0.01,Wunderground v.1.15,2013-07-16 22:05:00,
2013-07-16 18:15:00,83.4,78.1,30.20,WNW,288,0.0,0.0,84,0.08,,,0.02,Wunderground v.1.15,2013-07-16 22:15:00,
2013-07-16 18:25:00,82.1,77.8,30.20,WNW,288,0.0,0.0,87,0.05,,,0.03,Wunderground v.1.15,2013-07-16 22:25:00,
2013-07-16 18:35:00,81.6,78.0,30.20,WNW,288,0.0,0.0,89,0.04,,,0.03,Wunderground v.1.15,2013-07-16 22:35:00,
2013-07-16 18:45:00,81.6,78.7,30.20,WNW,288,0.0,0.0,91,0.00,,,0.03,Wunderground v.1.15,2013-07-16 22:45:00,
2013-07-16 18:55:00,82.5,80.3,30.19,WNW,288,0.0,0.0,93,0.00,,,0.03,Wunderground v.1.15,2013-07-16 22:55:00,
2013-07-16 19:05:00,83.0,80.4,30.20,WNW,288,0.0,0.0,92,0.00,,,0.03,Wunderground v.1.15,2013-07-16 23:05:00,
2013-07-16 19:15:00,83.4,80.8,30.20,WNW,288,0.0,0.0,92,0.00,,,0.03,Wunderground v.1.15,2013-07-16 23:15:00,
2013-07-16 19:20:00,83.5,80.9,30.20,WNW,288,0.0,0.0,92,0.00,,,0.03,Wunderground v.1.15,2013-07-16 23:20:00,
2013-07-16 19:30:00,83.7,81.1,30.21,WNW,288,0.0,0.0,92,0.00,,,0.03,Wunderground v.1.15,2013-07-16 23:30:00,
2013-07-16 19:35:00,83.7,81.1,30.21,WNW,288,0.0,0.0,92,0.00,,,0.03,Wunderground v.1.15,2013-07-16 23:35:00,
2013-07-16 19:40:00,83.7,81.1,30.21,WNW,288,0.0,0.0,92,0.00,,,0.03,Wunderground v.1.15,2013-07-16 23:40:00,
2013-07-16 19:45:00,83.8,81.2,30.20,WNW,288,0.0,0.0,92,0.00,,,0.03,Wunderground v.1.15,2013-07-16 23:45:00,
2013-07-16 19:55:00,83.1,80.5,30.20,WNW,288,0.0,0.0,92,0.00,,,0.03,Wunderground v.1.15,2013-07-16 23:55:00,
2013-07-16 20:00:00,83.2,80.6,30.20,WNW,288,0.0,0.0,92,0.00,,,0.03,Wunderground v.1.15,2013-07-17 00:00:00,
2013-07-16 20:05:00,83.1,80.5,30.21,WNW,288,0.0,0.0,92,0.00,,,0.03,Wunderground v.1.15,2013-07-17 00:05:00,
2013-07-16 20:15:00,82.5,79.9,30.20,WNW,288,0.0,0.0,92,0.00,,,0.03,Wunderground v.1.15,2013-07-17 00:15:00,
2013-07-16 20:20:00,82.3,79.7,30.21,WNW,288,0.0,0.0,92,0.00,,,0.03,Wunderground v.1.15,2013-07-17 00:20:00,
2013-07-16 20:25:00,82.3,80.1,30.21,WNW,288,0.0,0.0,93,0.00,,,0.03,Wunderground v.1.15,2013-07-17 00:25:00,
2013-07-16 20:30:00,82.3,80.1,30.22,WNW,288,0.0,0.0,93,0.00,,,0.03,Wunderground v.1.15,2013-07-17 00:30:00,
2013-07-16 20:40:00,82.1,79.9,30.22,WNW,288,0.0,0.0,93,0.00,,,0.03,Wunderground v.1.15,2013-07-17 00:40:00,
2013-07-16 20:50:00,82.1,80.2,30.21,WNW,288,0.0,0.0,94,0.00,,,0.03,Wunderground v.1.15,2013-07-17 00:50:00,
2013-07-16 21:00:00,81.9,80.0,30.21,WNW,288,0.0,0.0,94,0.00,,,0.03,Wunderground v.1.15,2013-07-17 01:00:00,
2013-07-16 21:05:00,81.7,79.8,30.21,WNW,288,0.0,0.0,94,0.00,,,0.03,Wunderground v.1.15,2013-07-17 01:05:00,
2013-07-16 21:15:00,80.5,78.3,30.22,WNW,288,0.0,0.0,93,0.00,,,0.03,Wunderground v.1.15,2013-07-17 01:15:00,
2013-07-16 21:25:00,80.7,79.1,30.22,WNW,288,0.0,0.0,95,0.00,,,0.03,Wunderground v.1.15,2013-07-17 01:25:00,
2013-07-16 21:30:00,80.9,79.3,30.22,WNW,288,0.0,0.0,95,0.00,,,0.03,Wunderground v.1.15,2013-07-17 01:30:00,
2013-07-16 21:40:00,81.0,79.1,30.22,WNW,288,0.0,0.0,94,0.00,,,0.03,Wunderground v.1.15,2013-07-17 01:40:00,
2013-07-16 21:50:00,80.7,78.8,30.22,WNW,288,0.0,0.0,94,0.00,,,0.03,Wunderground v.1.15,2013-07-17 01:50:00,
2013-07-16 21:55:00,80.7,78.5,30.23,WNW,288,0.0,0.0,93,0.00,,,0.03,Wunderground v.1.15,2013-07-17 01:55:00,
2013-07-16 22:05:00,80.5,78.3,30.23,WNW,288,0.0,0.0,93,0.00,,,0.03,Wunderground v.1.15,2013-07-17 02:05:00,
2013-07-16 22:15:00,80.3,78.1,30.23,WNW,288,0.0,0.0,93,0.00,,,0.03,Wunderground v.1.15,2013-07-17 02:15:00,
2013-07-16 22:25:00,80.1,77.9,30.23,WNW,288,0.0,0.0,93,0.00,,,0.03,Wunderground v.1.15,2013-07-17 02:25:00,
2013-07-16 22:30:00,80.0,78.1,30.22,WNW,288,0.0,0.0,94,0.00,,,0.03,Wunderground v.1.15,2013-07-17 02:30:00,
2013-07-16 22:40:00,79.8,77.9,30.22,WNW,288,0.0,0.0,94,0.00,,,0.03,Wunderground v.1.15,2013-07-17 02:40:00,
2013-07-16 22:45:00,79.7,77.8,30.22,WNW,288,0.0,0.0,94,0.00,,,0.03,Wunderground v.1.15,2013-07-17 02:45:00,
2013-07-16 22:50:00,79.5,77.6,30.22,WNW,288,0.0,0.0,94,0.00,,,0.03,Wunderground v.1.15,2013-07-17 02:50:00,
2013-07-16 22:55:00,79.4,77.5,30.22,WNW,288,0.0,0.0,94,0.00,,,0.03,Wunderground v.1.15,2013-07-17 02:55:00,
2013-07-16 23:00:00,79.4,77.5,30.22,WNW,288,0.0,0.0,94,0.00,,,0.03,Wunderground v.1.15,2013-07-17 03:00:00,
2013-07-16 23:05:00,79.2,77.3,30.22,WNW,288,0.0,0.0,94,0.00,,,0.03,Wunderground v.1.15,2013-07-17 03:05:00,
2013-07-16 23:15:00,78.9,77.0,30.22,WNW,288,0.0,0.0,94,0.00,,,0.03,Wunderground v.1.15,2013-07-17 03:15:00,
2013-07-16 23:20:00,78.7,76.8,30.22,WNW,288,0.0,0.0,94,0.00,,,0.03,Wunderground v.1.15,2013-07-17 03:20:00,
2013-07-16 23:30:00,78.4,76.5,30.22,WNW,288,0.0,0.0,94,0.00,,,0.03,Wunderground v.1.15,2013-07-17 03:30:00,
2013-07-16 23:40:00,78.3,76.4,30.21,WNW,288,0.0,0.0,94,0.00,,,0.03,Wunderground v.1.15,2013-07-17 03:40:00,
2013-07-16 23:50:00,78.1,76.6,30.21,WNW,288,0.0,0.0,95,0.00,,,0.03,Wunderground v.1.15,2013-07-17 03:50:00,
2013-07-16 23:55:00,78.1,76.6,30.21,WNW,288,0.0,0.0,95,0.00,,,0.00,Wunderground v.1.15,2013-07-17 03:55:00,